Regional Weather Roundup
Issued by NWS

Home | Current Version | Previous Version | Graphics & Text | Print | Product List | Glossary On
Versions: 1 2 3 4 5 6 7 8 9 10 11 12 13 14 15 16 17 18 19 20 21 22 23 24 25 26 27 28 29 30 31 32 33 34 35 36 37 38 39 40 41 42 43 44 45 46 47 48 49 50
526
ASUS43 KFSD 282002
RWRSD

WEATHER ROUNDUP FOR SOUTH DAKOTA
NATIONAL WEATHER SERVICE SIOUX FALLS SD
300 PM CDT TUE MAR 28 2017

NOTE: "FAIR" INDICATES FEW OR NO CLOUDS BELOW 12,000 FEET WITH NO
SIGNIFICANT WEATHER AND/OR OBSTRUCTIONS TO VISIBILITY.


SDZ001>005-009-010-012>017-282100-
NORTHWEST AND NORTH CENTRAL SOUTH DAKOTA

CITY           SKY/WX    TMP DP  RH WIND       PRES   REMARKS
BUFFALO          N/A     57  40  52 SE6       29.97S
FAITH            N/A     51  44  77 MISG      30.05F
MOBRIDGE       CLOUDY    60  36  40 S12       30.06F
$$

SDZ012>016-024>037-041>051-057-063-072>074-282100-
SOUTHWEST AND SOUTH CENTRAL SOUTH DAKOTA

CITY           SKY/WX    TMP DP  RH WIND       PRES   REMARKS
RAPID CTY ARPT LGT RAIN  43  40  89 N5        30.05R
PIERRE         CLOUDY    55  42  61 SE10      30.06F
CUSTER         LGT RAIN  37  34  89 E5        30.02S
ELLSWORTH AFB  LGT RAIN  42  42 100 CALM      30.04
PHILIP         LGT RAIN  48  45  89 SE14      30.06S
PINE RIDGE     LGT RAIN  47  45  93 NE10      30.02S FOG
SPEARFISH      FAIR      48  37  66 E9G18     30.04R
WINNER         LGT RAIN  51  47  86 E5        30.07S
$$

SDZ004>011-016>023-039-040-282100-
NORTHEAST SOUTH DAKOTA

CITY           SKY/WX    TMP DP  RH WIND       PRES   REMARKS
ABERDEEN       PTSUNNY   58  35  42 CALM      30.13F
WATERTOWN      CLOUDY    56  36  47 E8        30.12F
BROOKINGS      MOSUNNY   57  37  47 E10       30.10F
SISSETON         N/A     58  39  49 VRB7      30.14F
$$

SDZ017-020-022-023-036>040-048>070-282100-
SOUTHEAST SOUTH DAKOTA

CITY           SKY/WX    TMP DP  RH WIND       PRES   REMARKS
SIOUX FALLS    CLOUDY    62  38  40 E10       30.08F
HURON          CLOUDY    58  38  47 E9        30.10F
CHAMBERLAIN    MOSUNNY   61  35  38 E9        30.07F
MITCHELL       SUNNY     60  36  40 E10       30.09F
YANKTON        CLOUDY    55  37  50 E7        30.08S
$$

ABBREVIATIONS USED IN REMARKS
   TC - TEMPERATURE IN CELSIUS
  WCI - WIND CHILL INDEX
   HX - HEAT INDEX
  VSB - VISIBILITY





USA.gov is the U.S. government's official web portal to all federal, state and local government web resources and services.